Regional Weather Roundup
Issued by NWS Albany, NY

Home | Current Version | Previous Version | Text Only | Print | Product List | Glossary On
Versions: 1 2 3 4 5 6 7 8 9 10 11 12 13 14 15 16 17 18 19 20 21 22 23 24 25 26 27 28 29 30 31 32 33 34 35 36 37 38 39 40 41 42 43 44 45 46 47 48 49 50
000
ASUS41 KALY 221310
RWRALY

NEW YORK STATE HOURLY WEATHER ROUNDUP
NATIONAL WEATHER SERVICE ALBANY NY
900 AM EDT MON SEP 22 2014

NOTE: "FAIR" INDICATES FEW OR NO CLOUDS BELOW 12,000 FEET WITH NO
SIGNIFICANT WEATHER AND/OR NO OBSTRUCTIONS TO VISIBILITY.

NYZ032-033-038>043-046>054-057>066-NYZ062>081-221400-
EAST


CITY           SKY/WX    TMP DP  RH WIND       PRES   REMARKS
ALBANY         MOSUNNY   58  46  64 W21G36    29.81R
GLENS FALLS    MOSUNNY   58  45  62 W10       29.77R
POUGHKEEPSIE   SUNNY     64  54  69 S6        29.80R
NEWBURGH       MOSUNNY   63  55  77 W14G22    29.83
MONTGOMERY     SUNNY     63  52  67 NW12G22   29.83R
WHITE PLAINS   MOSUNNY   63  52  67 W16G25    29.81R
ISLIP          MOSUNNY   67  54  63 W12       29.79R
NEW YORK CITY  MOSUNNY   66  52  60 W14G24    29.83R
CENTRAL PARK   SUNNY     65  51  60 VRB5G18   29.86R
$$

NYZ005>009-017-018-044>046-055-056-221400-
CENTRAL


CITY           SKY/WX    TMP DP  RH WIND       PRES   REMARKS
FULTON         CLOUDY    51  44  77 W9        29.91R
SYRACUSE       DRIZZLE   52  48  86 W12       29.91R
ROME           CLOUDY    50  48  93 W10       29.90R
ELMIRA         CLOUDY    52  46  80 NW10      29.95R
BINGHAMTON     CLOUDY    48  46  93 NW9G17    29.92R FOG
MONTICELLO     PTSUNNY   54  48  82 NW12G22   29.88R
$$

NYZ026>034-041>043-221400-
NORTH


CITY           SKY/WX    TMP DP  RH WIND       PRES   REMARKS
WATERTOWN      CLOUDY    49  41  74 NW14      29.89R
FORT DRUM      NOT AVBL
MASSENA        CLOUDY    49  44  83 W14       29.82R
SARANAC LAKE   CLOUDY    44  42  93 W9        29.76R FOG
PLATTSBURGH    CLOUDY    53  43  68 NW16G26   29.73R
$$

NYZ001>004-010>016-019>021-221400-
WEST


CITY           SKY/WX    TMP DP  RH WIND       PRES   REMARKS
NIAGARA FALLS  CLOUDY    50  39  66 NW16G22   30.02R
BUFFALO        LGT RAIN  50  42  74 N12       30.01R
DUNKIRK        CLOUDY    51  40  65 NW15G22   30.05R
JAMESTOWN      CLOUDY    45  41  87 NW7       30.03R
WELLSVILLE     LGT RAIN  45  43  93 NW8       29.99R
ROCHESTER      CLOUDY    51  41  68 NW15G22   29.97R
PENN YAN       CLOUDY    49  44  83 NW10G21   29.96R
$$

             KEY
       WCI = WIND CHILL INDEX
       VSB = VISIBILITY
       HX  = HEAT INDEX
$$


USA.gov is the U.S. government's official web portal to all federal, state and local government web resources and services.